User: anonymous   Login
Location: Unspecified
(0.0000°N, 0.0000°E)
Time: 02:54:48
(UTC+00:00)
Language:

Hispasat 36W-1 - Orbit

View from above orbital plane
View from above orbital plane
View from above satellite
View from above satellite

Ground track
Ground track

The orbit data is extracted from the following two-line orbital elements,

1 41942U 17006A   17293.02021390 -.00000260 +00000-0 +00000-0 0  9992
2 41942 000.0453 057.6943 0000997 149.2714 153.0531 01.00271537002535
Epoch (UTC): 20 October 2017 00:29:06
Eccentricity: 0.0000997
inclination: 0.0453°
perigee height: 35782 km
apogee height: 35790 km
right ascension of ascending node: 57.6943°
argument of perigee: 149.2714°
revolutions per day: 1.00271537
mean anomaly at epoch: 153.0531°
orbit number at epoch: 253

The dashed part of the orbit path shows where the satellite is in the earth's shadow,  

DLR